Weather History for KLVK - May, 2014

Change the Weather History Date:

Friday, May 30, 2014

  Actual Average Record
Temperature  
Mean Temperature 62 °F 64 °F  
Max Temperature 74 °F 77 °F 101 °F (1950)
Min Temperature 50 °F 51 °F 40 °F (1974)
Degree Days  
Heating Degree Days 3 3  
Month to date heating degree days 37 125  
Since 1 July heating degree days 1894 2747  
Cooling Degree Days 0 2  
Month to date cooling degree days 104 46  
Year to date cooling degree days 123 55  
Growing Degree Days 12 (Base 50)    
Moisture  
Dew Point 47 °F    
Average Humidity 64    
Maximum Humidity 89    
Minimum Humidity 38    
Precipitation  
Precipitation 0.00 in 0.01 in 0.06 in (1948)
Month to date precipitation T 0.61  
Year to date precipitation 4.88 9.85  
Since 1 July precipitation 7.26  
Sea Level Pressure  
Sea Level Pressure 29.92 in    
Wind  
Wind Speed 11 mph (WNW)    
Max Wind Speed 21 mph    
Max Gust Speed 25 mph    
Visibility 10 miles    
Events      
T = Trace of Precipitation, MM = Missing Value Source: NWS Daily Summary

Daily Weather History Graph

Daily Weather History Graph

Search for Another Location

Airport or City:

Trip Planner

Search our weather history database for the weather conditions in past years. The results will help you decide how hot, cold, wet, or windy it might be!

Date:

Astronomy

May. 30, 2014 Rise Set
Actual Time 5:47 AM PDT 8:22 PM PDT
Civil Twilight 5:17 AM PDT 8:52 PM PDT
Nautical Twilight 4:39 AM PDT 9:30 PM PDT
Astronomical Twilight 3:57 AM PDT 10:12 PM PDT
Moon 7:35 AM PDT (5/30) 10:03 PM PDT (5/30)
Length of Visible Light 15h 35m
Length of Day
14h 34m
Waxing Crescent, 4% of the Moon is Illuminated
May 30
Waxing Crescent
Jun 5
First Quarter
Jun 12
Full
Jun 19
Last Quarter
Jun 27
New

Hourly Weather History & Observations

Time (PDT) Temp. Dew Point Humidity Pressure Visibility Wind Dir Wind Speed Gust Speed Precip Events Conditions
12:53 AM 55.9 °F 41.0 °F 57% 29.91 in 10.0 mi West 3.5 mph - N/A   Clear
1:53 AM 54.0 °F 43.0 °F 66% 29.90 in 10.0 mi Calm Calm - N/A   Clear
2:53 AM 53.1 °F 44.1 °F 71% 29.89 in 10.0 mi WNW 6.9 mph - N/A   Clear
3:53 AM 52.0 °F 46.0 °F 80% 29.89 in 10.0 mi WNW 6.9 mph - N/A   Clear
4:53 AM 50.0 °F 45.0 °F 83% 29.89 in 10.0 mi West 4.6 mph - N/A   Clear
5:53 AM 51.1 °F 46.9 °F 86% 29.90 in 9.0 mi WNW 5.8 mph - N/A   Clear
6:53 AM 51.1 °F 48.0 °F 89% 29.92 in 7.0 mi West 4.6 mph - N/A   Clear
7:53 AM 55.9 °F 48.0 °F 75% 29.92 in 10.0 mi WNW 8.1 mph - N/A   Clear
8:53 AM 60.1 °F 46.9 °F 62% 29.93 in 10.0 mi WNW 6.9 mph - N/A   Clear
9:53 AM 64.0 °F 48.9 °F 58% 29.93 in 10.0 mi NW 9.2 mph - N/A   Clear
11:53 AM 69.1 °F 46.9 °F 45% 29.92 in 10.0 mi WNW 13.8 mph 20.7 mph N/A   Clear
12:53 PM 72.0 °F 46.9 °F 41% 29.92 in 10.0 mi WNW 13.8 mph - N/A   Clear
1:53 PM 73.0 °F 48.0 °F 41% 29.91 in 10.0 mi WNW 17.3 mph - N/A   Clear
3:53 PM 70.0 °F 46.9 °F 44% 29.91 in 10.0 mi WNW 19.6 mph 25.3 mph N/A   Clear
4:53 PM 68.0 °F 48.0 °F 49% 29.91 in 10.0 mi NW 16.1 mph - N/A   Clear
5:53 PM 64.9 °F 48.0 °F 54% 29.91 in 10.0 mi West 16.1 mph - N/A   Clear
6:53 PM 61.0 °F 48.9 °F 64% 29.91 in 10.0 mi West 17.3 mph - N/A   Clear
7:53 PM 57.0 °F 48.9 °F 74% 29.93 in 10.0 mi WNW 16.1 mph - N/A   Clear
8:53 PM 55.0 °F 48.9 °F 80% 29.95 in 10.0 mi West 12.7 mph - N/A   Clear
9:53 PM 54.0 °F 48.0 °F 80% 29.97 in 10.0 mi West 5.8 mph - N/A   Clear
10:53 PM 54.0 °F 48.9 °F 83% 29.96 in 10.0 mi West 8.1 mph - N/A   Clear
11:53 PM 53.1 °F 48.0 °F 83% 29.96 in 10.0 mi West 3.5 mph - N/A   Mostly Cloudy